TimeEST,TemperatureF,Dew PointF,Humidity,Sea Level PressureIn,VisibilityMPH,Wind Direction,Wind SpeedMPH,Gust SpeedMPH,PrecipitationIn,Events,Conditions,WindDirDegrees,DateUTC
12:56 AM,30.9,30.0,96,29.89,9.0,NNE,3.5,-,N/A,,Overcast,30,2013-02-06 05:56:00
1:03 AM,30.2,30.2,100,29.88,9.0,NNE,3.5,-,N/A,,Overcast,30,2013-02-06 06:03:00
1:56 AM,32.0,30.9,96,29.90,10.0,NNW,6.9,-,N/A,,Overcast,330,2013-02-06 06:56:00
2:47 AM,32.0,30.2,93,29.88,7.0,NNW,4.6,-,0.00,Snow,Light Snow,340,2013-02-06 07:47:00
2:56 AM,32.0,30.9,96,29.90,7.0,NNW,4.6,-,0.00,Snow,Light Snow,330,2013-02-06 07:56:00
3:23 AM,32.0,30.2,93,29.89,4.0,North,3.5,-,0.00,Snow,Light Snow,360,2013-02-06 08:23:00
3:35 AM,32.0,32.0,100,29.88,5.0,North,3.5,-,0.00,Snow,Light Snow,360,2013-02-06 08:35:00
3:56 AM,32.0,30.9,96,29.89,5.0,NNW,3.5,-,0.00,Snow,Light Snow,340,2013-02-06 08:56:00
4:08 AM,32.0,30.2,93,29.89,6.0,Calm,Calm,-,0.00,Snow,Light Snow,0,2013-02-06 09:08:00
4:23 AM,32.0,32.0,100,29.89,6.0,NNW,3.5,-,0.00,,Overcast,330,2013-02-06 09:23:00
5:13 AM,33.8,32.0,93,29.91,10.0,North,4.6,-,N/A,,Overcast,350,2013-02-06 10:13:00
5:49 AM,33.8,32.0,93,29.91,10.0,NNW,3.5,-,N/A,,Overcast,330,2013-02-06 10:49:00
5:56 AM,33.1,32.0,96,29.92,10.0,NNW,3.5,-,N/A,,Overcast,330,2013-02-06 10:56:00
6:31 AM,32.0,32.0,100,29.93,7.0,NNW,4.6,-,N/A,,Overcast,330,2013-02-06 11:31:00
6:56 AM,32.0,30.9,96,29.94,7.0,NW,3.5,-,N/A,,Overcast,310,2013-02-06 11:56:00
7:56 AM,32.0,32.0,100,29.97,5.0,Calm,Calm,-,N/A,,Overcast,0,2013-02-06 12:56:00
8:56 AM,33.1,32.0,96,29.99,6.0,Calm,Calm,-,N/A,,Overcast,0,2013-02-06 13:56:00
9:56 AM,34.0,30.9,89,29.99,10.0,West,5.8,-,N/A,,Overcast,280,2013-02-06 14:56:00
10:49 AM,33.8,28.4,81,29.99,9.0,WNW,8.1,-,N/A,,Overcast,290,2013-02-06 15:49:00
10:56 AM,34.0,28.9,82,30.00,10.0,WNW,10.4,-,N/A,,Overcast,290,2013-02-06 15:56:00
11:31 AM,35.6,28.4,75,29.98,10.0,WNW,8.1,-,N/A,,Overcast,290,2013-02-06 16:31:00
11:56 AM,36.0,28.9,76,29.99,10.0,WSW,10.4,-,N/A,,Mostly Cloudy,250,2013-02-06 16:56:00
12:56 PM,39.0,28.0,65,29.98,10.0,WSW,12.7,-,N/A,,Mostly Cloudy,250,2013-02-06 17:56:00
1:56 PM,39.0,24.1,55,29.98,10.0,WSW,15.0,19.6,N/A,,Partly Cloudy,250,2013-02-06 18:56:00
2:56 PM,39.0,21.9,50,30.00,10.0,West,9.2,-,N/A,,Overcast,260,2013-02-06 19:56:00
3:56 PM,37.9,19.9,48,30.02,10.0,WNW,10.4,19.6,N/A,,Overcast,300,2013-02-06 20:56:00
4:56 PM,36.0,17.1,46,30.05,10.0,West,8.1,-,N/A,,Partly Cloudy,280,2013-02-06 21:56:00
5:56 PM,33.1,18.0,54,30.09,10.0,West,3.5,-,N/A,,Clear,270,2013-02-06 22:56:00
6:56 PM,33.1,17.1,52,30.12,10.0,West,5.8,-,N/A,,Clear,280,2013-02-06 23:56:00
7:56 PM,32.0,16.0,52,30.15,10.0,West,5.8,-,N/A,,Clear,280,2013-02-07 00:56:00
8:56 PM,30.9,12.0,46,30.18,10.0,NW,8.1,16.1,N/A,,Clear,310,2013-02-07 01:56:00
9:56 PM,30.9,10.9,43,30.20,10.0,WNW,6.9,-,N/A,,Clear,300,2013-02-07 02:56:00
10:56 PM,30.0,9.0,41,30.23,10.0,NW,9.2,17.3,N/A,,Clear,310,2013-02-07 03:56:00
11:56 PM,28.0,8.1,43,30.25,10.0,WNW,8.1,-,N/A,,Clear,300,2013-02-07 04:56:00